Location: Bambrugge
(50.9212°N, 3.9299°E)
Time: 20:14:58
(UTC+00:00)

SL-16 R/B - Pass Details

Date: 16 August 2024
Orbit: 842 x 845 km, 71.0° (Epoch: 10 September)

Event Time Altitude Azimuth Distance (km) Brightness Sun altitude
Exits shadow 21:34:06 23° 98° (E) 1,725 3.4 -19.4°
Drops below altitude 10° 21:38:13 10° 52° (NE) 2,474 4.7 -19.7°
Sets 21:41:07 0° 38° (NE) 3,415 5.6 -20.0°
